Погода в Называевске

Погода в Называевске : погода сейчас, прогноз погоды и архив. Всё, что Вы хотите узнать о погоде в Называевске!

Хотите узнать прогноз погоды в Называевске? Тогда Вам сюда: Погода в Называевске

Поиск расширенной информации на нашем сайте:

Другие новости

Новости СМИ2

Главная страница сайта

Новости сайта

03.07.2017

Напоминаем, что на нашем специализированном сайте Метеоцентр.Азия вы можете получить высокодетализированные автоматические прогнозы погоды по пунктам России, СНГ и мира в авиационном формате (включающие направление и скорость ветра, видимость, явления погоды, количество и форму облачности, нижнюю и верхнюю границу облачности).


Погода в Называевске - сегодня

Время (UTC), дата Ветер
(°,м/с) 
Видим.   Явления Облачность Т
(°С)
Тd
(°С)
f(%) Тe
(°С)
Pmin
(гПа)
dP
(гПа)
Po
(мм)
O2
(г/м3)
Тmin Tmax R s Состояние
почвы
18 16.05.18 050 (СВ) 20000 м    1/1 600 м 
[Sc diur, vesp]
-1.3 -6.3 69 -3  1019.3  1.3  753  305           
21 16.05.18 050 (СВ) 20000 м    ясно 
-2.6 -7 72 -2  1019.8  0.5  753  307           
00 17.05.18 280 (З) 40000 м    1/0 верхняя 
[Ci sp]
-3.1 -6.2 79 -3  1020.9  754  308           
03 17.05.18 360 (С) 40000 м    3/3 600 м верхняя 
[Cu hum|Ci sp]
+1.4 -9.4 44 +1  1021.1  0.4  754  303  -4.1        влажная 
06 17.05.18 010 (С) 40000 м    4/4 600 м 
[Cu hum]
+4.2 -9.3 37 +4  1020.4  -0.5  754  300           
09 17.05.18 280 (З) 40000 м    8/1 600 м верхняя 
[Cu hum|Cs]
+7.6 -9.1 29 +7  1018.8  -1.3  753  296           
12 17.05.18 260 (З) 40000 м    6/1 600 м верхняя 
[Cu hum|Cs]
+9.3 -8.7 27 +8  1016.8  -1.9  751  294           
15 17.05.18 210 (ЮЗ) 40000 м    4/3 600 м средняя 
[Cu hum|Ac lent]
+7.6 -6.6 36 +8  1015.1  -1.8  750  295    +9.5       
18 17.05.18 210 (ЮЗ) 20000 м    8/0 средняя 
[Ac trans]
+5.9 -4.9 46 +4  1013.3  -1.9  748  296           
21 17.05.18 230 (ЮЗ) 20000 м    9/0 средняя 
[Ac trans]
+6.7 -4.6 44 +6  1010.8  -2.3  747  294           
00 18.05.18 240 (ЮЗ) 40000 м    9/0 средняя 
[Ac As]
+7.3 -3.9 45 +6  1007.4  -3.3  744  292           
03 18.05.18 280 (З) 7-12{12}  23000 м    9/0 средняя 
[Ac As]
+10.9 -2.7 38 +9  1005.8  -1.5  743  288  +5.8        сухая 
15 18.05.18 340 (С) 7-10{15}  40000 м    1/1 600 м 
[Cu hum]
+3.1 -8.8 41 1018.3  2.6  752  300    +11.9     
18 18.05.18 340 (С) 5{11}  20000 м    1/0 верхняя 
[Ci fib]
+0.7 -7.8 53 -2  1021.5  2.6  754  304           
21 18.05.18 340 (С) 20000 м    ясно 
-0.8 -8.1 58 -3  1023.2  1.6  755  306           
00 19.05.18 310 (СЗ) 40000 м    ясно 
-2.3 -8.8 61 -3  1025.4  2.1  757  309           
03 19.05.18 340 (С) 40000 м    ясно 
+2.3 -10.9 37 1027.2  759  304  -3.1        влажная 
06 19.05.18 350 (С) 40000 м    ясно 
+6.6 -12.4 24 +6  1027.4  0.5  759  300           
09 19.05.18 280 (З) 40000 м    ясно 
+10 -12.3 19 +10  1026.9  -0.3  759  296           
12 19.05.18 240 (ЮЗ) 40000 м    3/0 верхняя 
[Ci fib]
+11.8 -13.2 16 +13  1025.5  -1.3  758  294           
15 19.05.18 210 (ЮЗ) 30000 м    3/0 средняя, верхняя 
[Ac lent|Ci sp]
+10.1 -9.4 24 +11  1025  -0.6  757  295    +12.7       
18 19.05.18 180 (Ю) 20000 м    3/0 средняя, верхняя 
[Ac lent|Ci fib]
+5.5 -4.8 47 +5  1024.6  -0.6  757  299           
21 19.05.18 190 (Ю) 4000 м  слаб. дождь  10/0 средняя 
[As op]
+6.2 -1.3 59 +5  1024.2  -0.4  757  298           
00 20.05.18 160 (Ю) 40000 м  {дождь}  9/0 средняя 
[Ac As]
+6 -0.1 65 +4  1021.8  -2.3  755  298           
03 20.05.18 180 (Ю) 6-10{10}  40000 м    9/0 средняя 
[Ac As]
+10.6 -0.1 47 +9  1018.9  -2.6  753  292  +5.4      влажная 
Время (UTC), дата Ветер
(°,м/с) 
Видим.   Явления Облачность Т
(°С)
Тd
(°С)
f(%) Тe
(°С)
Pmin
(гПа)
dP
(гПа)
Po
(мм)
O2
(г/м3)
Тmin Tmax R s Состояние
почвы

Для получения пояснительной информации подведите курсор к названию столбца.

ПОГОДА в Называевске - архив

Всё, что Вы хотите узнать о погоде в Называевске - удобно и подробно!

Выберите нужную дату (начиная с 1 января 2015* года) и нажмите кнопку "Найти".
Будут отображены архивные сводки погоды по пункту Называевск, начиная с указанной даты.


Отображать данные в формате CSV (для использования в таблицах Excel)


Внимание! Наш архив погоды предназначен исключительно для личного некоммерческого использования в познавательных целях. Если Вам необходимы официальные справки о состоянии погоды (для производственных, юридических, коммерческих и т.п. целей), обращайтесь в органы Росгидромета.

*Примечание: данная дата относится к архиву по метеостанциям СССР (Россия, СНГ, Балтия).
Архив по метеостанциям Зарубежной Европы и Азии (кроме Китая) хранится 10 дней, по другим регионам земного шара (Китай, Африка, Америка, Австралия, Океания) - 1 день.

Называевск - район местоположения метеостанции


Название, широта, долгота, высота метеостанции:
Называевск 55.6°ш. 71.4°д. 126 м над ур. моря [Российская Федерация]

Дополнительная информация

В oтличие oт бoльшинства пoгoдных сайтoв мы публикуем пoдрoбную метеoинфoрмацию в детальнoм прoфессиoнальнoм фoрмате.

Характеристики температуры и влажнoсти вoздуха измеряются на высoте 2 м в тени вдали oт зданий и деревьев.
Скoрoсть ветра измеряется на высoте 10 м (на урoвне рoста челoвека скoрoсть ветра ниже в 1.5-2 раза). Если метеoстанция нахoдится в гoрoде или в лесу, тo скoрoсть ветра занижена на 2-4 м/с пo сравнению с oткрытым местoм. Скoрoсть ветра над акватoриями крупных рек и oзёр, а также на вершинах хoлмoв на 2-5 м/с выше, чем в oбычных услoвиях.
Атмoсфернoе давление в разных тoчках местнoсти мoжет значительнo oтличаться oт давления на метеoстанции, в зависимoсти oт услoвий рельефа (при пoдъёме на 10 м давление пoнижается примернo на 1 мм рт.ст.).